Content
SEND FEEDBACK

Daily
Averages
Monthly
Summary
United States of America

LIVONIA, MICHIGAN


Home > North America > United States > Michigan
Elevation: 778 feet     Latitude: 42 13N     Longitude: 083 31W

WEATHER
 
SELECT A DAY
Number of Records: 205,750;   Date Range: 1/1/95 - 10/22/14
 
SHARE

PRINT THIS DATA

[ ← Previous Day ]
WEATHER ALMANAC - JULY 12, 2014
[ Next Day → ]
[ °C ]   °F
Weather ElementAverageHighLow
Temperature77.9 °F88 °F (12:53 pm)66 °F (1:19 am)
Dewpoint62.4 °F66.9 °F (11:53 am)57.9 °F (4:26 am)
Humidity60.2 %79 % (12:53 am)40 % (3:53 pm)
Barometer30.07 in30.17 in (9:26 am)29.91 in (12:53 pm)
Wind Speed6.8 mph15 mph (2:53 pm)
Weather ElementAverage
Visibility9.9 mi
Wind DirectionSSE (143 °)

Weather ElementTotal
Precipitation---
Cooling Degree Days12 (Base 65)
Growing Degree Days27 (Base 50)
Averaged from 23 records on July 12, 2014
WEATHER CONDITIONS BREAKOUT
WIND DIRECTION BREAKOUT
WEATHER BY HOUR - JULY 12, 2014
[ °C ]   °F
Local TimeTemperatureDewpointHumidityBarometerVisibilityWind DirectionWind SpeedGust SpeedPrecipitationEventsConditions
12:53 AM66.0 °F57.9 °F75 %30.17 in10.0 miCalmClear
1:53 AM66.9 °F60.1 °F79 %30.16 in10.0 miCalmClear
2:53 AM68.0 °F60.1 °F76 %30.15 in10.0 miCalmClear
3:53 AM69.1 °F61.0 °F75 %30.14 in10.0 miCalmClear
4:53 AM69.1 °F60.1 °F73 %30.13 in10.0 miSouth (190°)3.5 mphClear
5:53 AM69.1 °F59.0 °F70 %30.14 in10.0 miCalmClear
6:53 AM66.9 °F57.9 °F73 %30.13 in10.0 miCalmClear
7:53 AM72.0 °F61.0 °F68 %30.12 in10.0 miSouth (190°)3.5 mphClear
8:53 AM75.9 °F60.1 °F58 %30.13 in10.0 miSW (230°)5.8 mphClear
9:53 AM80.1 °F61.0 °F52 %30.13 in10.0 miSouth (190°)6.9 mphClear
10:53 AM82.9 °F60.1 °F46 %30.12 in10.0 miSouth (170°)6.9 mphClear
11:53 AM84.9 °F62.1 °F46 %30.10 in10.0 miSouth (190°)10.4 mphClear
1:53 PM87.1 °F60.1 °F40 %30.09 in10.0 miSW (220°)12.7 mphPartly Cloudy
2:53 PM88.0 °F62.1 °F42 %30.06 in10.0 miSW (220°)12.7 mphScattered Clouds
3:53 PM87.1 °F62.1 °F43 %30.04 in10.0 miSouth (190°)13.8 mphClear
4:53 PM88.0 °F64.0 °F45 %30.00 in10.0 miSouth (170°)10.4 mphClear
5:53 PM86.0 °F64.9 °F49 %29.98 in10.0 miSSE (160°)10.4 mphClear
6:53 PM84.9 °F66.0 °F53 %29.98 in10.0 miSouth (180°)8.1 mphMostly Cloudy
7:53 PM82.9 °F66.9 °F58 %29.97 in9.0 miSSW (200°)10.4 mph0.00 inMostly Cloudy
8:53 PM82.0 °F66.9 °F60 %29.96 in10.0 miSSW (210°)15.0 mphClear
9:53 PM80.1 °F66.9 °F64 %29.95 in10.0 miSSW (210°)8.1 mphClear
10:53 PM77.0 °F66.9 °F71 %29.94 in9.0 miSouth (170°)5.8 mphPartly Cloudy
11:53 PM78.1 °F66.9 °F68 %29.91 in10.0 miSSW (200°)11.5 mphOvercast
Hourly data recorded from KYIP, located miles away from Livonia, Michigan







STORIES FROM OUR PARTNERS